When you browse on this site, cookies collect data to enhance your experience and personalize the content and advertising you see.
Visit our Privacy Policy to learn more. By continuing to use the site, you agree to this use of cookies and data.
  • In Hungary
  • List of Countries
  • For 7 days
  • Water Temperature
  • Satellite Maps
  • Weather Map
  • News
  • Weather Widgets
  • user-avatar
    Login

    Hourly Weather Ekendil

    Today, 19 November, Monday

    Time Temperature Precipitation Wind Pressure Humidity
    00:00 +7°C° 0 mm 1 mps 734 mmHg 72%
    01:00 +7°C° 0 mm 1 mps 734 mmHg 71%
    02:00 +6°C° 0 mm 2 mps 734 mmHg 71%
    03:00 +5°C° 0 mm 2 mps 734 mmHg 71%
    04:00 +5°C° 0 mm 2 mps 734 mmHg 70%
    05:00 +5°C° 0 mm 2 mps 734 mmHg 69%
    06:00 +5°C° 0 mm 2 mps 734 mmHg 69%
    07:00 +6°C° 0 mm 2 mps 734 mmHg 65%
    08:00 +7°C° 0 mm 2 mps 734 mmHg 61%
    09:00 +8°C° 0 mm 2 mps 735 mmHg 60%
    10:00 +9°C° 0 mm 2 mps 735 mmHg 60%
    11:00 +9°C° 0 mm 2 mps 735 mmHg 60%
    12:00 +10°C° 0 mm 3 mps 735 mmHg 60%
    13:00 +9°C° 0 mm 2 mps 735 mmHg 63%
    14:00 +9°C° 0 mm 2 mps 735 mmHg 65%
    15:00 +9°C° 0 mm 2 mps 734 mmHg 68%
    16:00 +8°C° 0 mm 2 mps 735 mmHg 69%
    17:00 +8°C° 0 mm 1 mps 735 mmHg 70%
    18:00 +7°C° 0 mm 1 mps 735 mmHg 71%
    19:00 +7°C° 0 mm 1 mps 735 mmHg 68%
    20:00 +6°C° 0 mm 2 mps 735 mmHg 66%
    21:00 +6°C° 0 mm 2 mps 735 mmHg 63%
    22:00 +6°C° 0 mm 2 mps 734 mmHg 61%
    23:00 +5°C° 0 mm 3 mps 734 mmHg 58%

    Tomorrow, 20 November, Tuesday

    Time Temperature Precipitation Wind Pressure Humidity
    00:00 +5°C° 0 mm 3 mps 734 mmHg 56%
    01:00 +7°C° 0 mm 3 mps 733 mmHg 55%
    02:00 +7°C° 0 mm 3 mps 733 mmHg 54%
    03:00 +7°C° 0 mm 3 mps 733 mmHg 53%
    04:00 +7°C° 0 mm 3 mps 732 mmHg 52%
    05:00 +7°C° 0 mm 3 mps 732 mmHg 51%
    06:00 +8°C° 0 mm 2 mps 731 mmHg 50%
    07:00 +9°C° 0 mm 2 mps 731 mmHg 47%
    08:00 +12°C° 0 mm 2 mps 731 mmHg 43%
    09:00 +13°C° 0 mm 1 mps 731 mmHg 40%
    10:00 +14°C° 0 mm 1 mps 730 mmHg 40%
    11:00 +15°C° 0 mm 1 mps 729 mmHg 40%
    12:00 +18°C° 0 mm 1 mps 729 mmHg 40%
    13:00 +16°C° 0 mm 1 mps 728 mmHg 43%
    14:00 +16°C° 0 mm 1 mps 727 mmHg 46%
    15:00 +16°C° 0 mm 1 mps 727 mmHg 49%
    16:00 +15°C° 0 mm 2 mps 727 mmHg 51%
    17:00 +14°C° 0 mm 2 mps 727 mmHg 53%
    18:00 +11°C° 0 mm 3 mps 727 mmHg 55%
    19:00 +11°C° 0 mm 3 mps 727 mmHg 56%
    20:00 +11°C° 0 mm 3 mps 726 mmHg 57%
    21:00 +10°C° 0 mm 4 mps 726 mmHg 58%
    22:00 +10°C° 0 mm 3 mps 726 mmHg 58%
    23:00 +10°C° 0 mm 3 mps 726 mmHg 58%

    Day after tomorrow, 21 November, Wednesday

    Time Temperature Precipitation Wind Pressure Humidity
    00:00 +10°C° 0 mm 3 mps 726 mmHg 57%
    01:00 +10°C° 0 mm 3 mps 726 mmHg 61%
    02:00 +9°C° 0 mm 3 mps 726 mmHg 64%
    03:00 +8°C° 0 mm 4 mps 726 mmHg 67%
    04:00 +9°C° 0.1 mm 3 mps 727 mmHg 69%
    05:00 +9°C° 0.1 mm 3 mps 727 mmHg 70%
    06:00 +8°C° 0.1 mm 3 mps 727 mmHg 71%
    07:00 +9°C° 0 mm 3 mps 728 mmHg 69%
    08:00 +10°C° 0 mm 3 mps 728 mmHg 67%
    09:00 +11°C° 0 mm 3 mps 728 mmHg 65%
    10:00 +11°C° 0 mm 3 mps 728 mmHg 64%
    11:00 +12°C° 0 mm 4 mps 728 mmHg 63%
    12:00 +12°C° 0 mm 4 mps 728 mmHg 62%
    13:00 +10°C° 0 mm 5 mps 728 mmHg 66%
    14:00 +10°C° 0 mm 5 mps 728 mmHg 71%
    15:00 +9°C° 0 mm 5 mps 728 mmHg 75%
    16:00 +8°C° 0 mm 4 mps 728 mmHg 78%
    17:00 +7°C° 0 mm 4 mps 728 mmHg 82%
    18:00 +6°C° 0 mm 4 mps 728 mmHg 85%
    19:00 +7°C° 0 mm 3 mps 728 mmHg 85%
    20:00 +7°C° 0 mm 3 mps 728 mmHg 85%
    21:00 +7°C° 0 mm 3 mps 728 mmHg 86%
    22:00 +7°C° 0.1 mm 2 mps 728 mmHg 87%
    23:00 +7°C° 0.1 mm 2 mps 728 mmHg 88%

    22 November, Thursday

    Time Temperature Precipitation Wind Pressure Humidity
    00:00 +6°C° 0.1 mm 2 mps 728 mmHg 89%
    01:00 +6°C° 0 mm 2 mps 728 mmHg 90%
    02:00 +6°C° 0 mm 2 mps 728 mmHg 90%
    03:00 +6°C° 0 mm 2 mps 728 mmHg 91%
    04:00 +6°C° 0 mm 2 mps 728 mmHg 91%
    05:00 +6°C° 0 mm 2 mps 728 mmHg 91%
    06:00 +6°C° 0 mm 2 mps 728 mmHg 91%
    07:00 +6°C° 0 mm 2 mps 728 mmHg 88%
    08:00 +7°C° 0 mm 2 mps 729 mmHg 85%
    09:00 +7°C° 0 mm 2 mps 729 mmHg 82%
    10:00 +8°C° 0 mm 2 mps 729 mmHg 81%
    11:00 +8°C° 0 mm 2 mps 729 mmHg 79%
    12:00 +8°C° 0 mm 2 mps 728 mmHg 78%
    13:00 +8°C° 0 mm 2 mps 728 mmHg 80%
    14:00 +8°C° 0 mm 2 mps 728 mmHg 81%
    15:00 +8°C° 0 mm 2 mps 728 mmHg 83%
    16:00 +7°C° 0 mm 2 mps 728 mmHg 85%
    17:00 +7°C° 0 mm 2 mps 729 mmHg 87%
    18:00 +6°C° 0 mm 2 mps 729 mmHg 89%
    19:00 +7°C° 0 mm 1 mps 729 mmHg 88%
    20:00 +7°C° 0 mm 1 mps 729 mmHg 86%
    21:00 +7°C° 0 mm 1 mps 729 mmHg 85%
    22:00 +7°C° 0 mm 1 mps 729 mmHg 85%
    23:00 +7°C° 0 mm 1 mps 729 mmHg 84%

    23 November, Friday

    Time Temperature Precipitation Wind Pressure Humidity
    00:00 +7°C° 0 mm 1 mps 729 mmHg 84%
    01:00 +7°C° 0 mm 1 mps 729 mmHg 84%
    02:00 +7°C° 0 mm 1 mps 729 mmHg 84%
    03:00 +6°C° 0 mm 2 mps 729 mmHg 85%
    04:00 +6°C° 0 mm 2 mps 729 mmHg 84%
    05:00 +6°C° 0 mm 2 mps 729 mmHg 84%
    06:00 +6°C° 0 mm 2 mps 729 mmHg 84%
    07:00 +6°C° 0 mm 2 mps 730 mmHg 81%
    08:00 +7°C° 0 mm 2 mps 730 mmHg 78%
    09:00 +8°C° 0 mm 2 mps 730 mmHg 75%
    10:00 +8°C° 0 mm 2 mps 730 mmHg 75%
    11:00 +9°C° 0 mm 3 mps 730 mmHg 74%
    12:00 +9°C° 0 mm 3 mps 730 mmHg 74%
    13:00 +8°C° 0 mm 3 mps 730 mmHg 76%
    14:00 +8°C° 0 mm 3 mps 731 mmHg 79%
    15:00 +8°C° 0 mm 3 mps 731 mmHg 81%
    16:00 +7°C° 0 mm 3 mps 732 mmHg 83%
    17:00 +5°C° 0 mm 3 mps 733 mmHg 85%
    18:00 +5°C° 0 mm 4 mps 734 mmHg 87%
    19:00 +5°C° 0 mm 4 mps 734 mmHg 85%
    20:00 +4°C° 0 mm 4 mps 735 mmHg 83%
    21:00 +4°C° 0 mm 4 mps 736 mmHg 81%
    22:00 +3°C° 0 mm 4 mps 737 mmHg 81%
    23:00 +3°C° 0 mm 4 mps 737 mmHg 81%

    24 November, Saturday

    Time Temperature Precipitation Wind Pressure Humidity
    00:00 +3°C° 0 mm 4 mps 738 mmHg 81%
    01:00 +2°C° 0 mm 3 mps 738 mmHg 82%
    02:00 +2°C° 0 mm 3 mps 738 mmHg 83%
    03:00 +3°C° 0 mm 2 mps 738 mmHg 83%
    04:00 +3°C° 0 mm 2 mps 739 mmHg 84%
    05:00 +3°C° 0 mm 2 mps 739 mmHg 84%
    06:00 +4°C° 0 mm 1 mps 740 mmHg 85%
    07:00 +4°C° 0 mm 2 mps 740 mmHg 81%
    08:00 +4°C° 0 mm 2 mps 741 mmHg 76%
    09:00 +5°C° 0 mm 2 mps 741 mmHg 72%
    10:00 +5°C° 0 mm 3 mps 741 mmHg 71%
    11:00 +6°C° 0 mm 4 mps 741 mmHg 69%
    12:00 +6°C° 0 mm 4 mps 740 mmHg 67%
    13:00 +6°C° 0 mm 4 mps 740 mmHg 69%
    14:00 +6°C° 0 mm 4 mps 740 mmHg 71%
    15:00 +6°C° 0 mm 5 mps 739 mmHg 73%
    16:00 +6°C° 0 mm 4 mps 739 mmHg 75%
    17:00 +5°C° 0 mm 4 mps 739 mmHg 78%
    18:00 +5°C° 0 mm 4 mps 739 mmHg 81%
    19:00 +5°C° 0 mm 4 mps 739 mmHg 79%
    20:00 +5°C° 0 mm 4 mps 738 mmHg 78%
    21:00 +5°C° 0 mm 3 mps 738 mmHg 77%
    22:00 +5°C° 0 mm 3 mps 737 mmHg 75%
    23:00 +5°C° 0 mm 3 mps 737 mmHg 74%
    Show more